Total_Precipitation_Accumulation
0.01 0.01 0.00 0.00 0.00 0.00 0.01 0.04 0.09 0.25 0.33 0.42 0.65 0.56 0.33 0.15 0.09 0.10 0.07 0.07 0.04 0.04
0.01 0.01 0.00 0.00 0.00 0.00 0.00 0.05 0.08 0.11 0.24 0.37 0.54 0.59 0.58 0.41 0.20 0.12 0.11 0.09 0.09 0.09
0.01 0.01 0.01 0.00 0.00 0.00 0.00 0.02 0.05 0.04 0.09 0.17 0.30 0.31 0.36 0.40 0.35 0.29 0.22 0.18 0.18 0.24
0.01 0.01 0.01 0.01 0.00 0.00 0.00 0.01 0.02 0.02 0.02 0.07 0.14 0.23 0.25 0.17 0.19 0.20 0.19 0.31 0.34 0.21
0.00 0.00 0.00 0.00 0.00 0.00 0.00 0.00 0.00 0.01 0.00 0.02 0.07 0.12 0.15 0.15 0.19 0.14 0.10 0.12 0.22 0.12
0.01 0.00 0.00 0.00 0.00 0.00 0.00 0.00 0.00 0.00 0.00 0.01 0.04 0.04 0.05 0.06 0.08 0.12 0.09 0.10 0.10 0.06
0.04 0.01 0.00 0.00 0.00 0.01 0.00 0.00 0.00 0.00 0.00 0.00 0.01 0.01 0.01 0.02 0.02 0.04 0.04 0.04 0.06 0.06
0.02 0.00 0.00 0.00 0.00 0.00 0.01 0.00 0.00 0.01 0.00 0.01 0.00 0.00 0.01 0.01 0.01 0.01 0.01 0.01 0.03 0.04
0.01 0.00 0.00 0.00 0.00 0.00 0.01 0.00 0.00 0.00 0.00 0.00 0.00 0.01 0.01 0.01 0.04 0.06 0.04 0.04 0.04 0.07
0.08 0.03 0.01 0.00 0.00 0.00 0.00 0.00 0.00 0.00 0.00 0.01 0.02 0.01 0.01 0.01 0.03 0.04 0.06 0.08 0.11 0.14
0.14 0.09 0.05 0.02 0.01 0.01 0.01 0.00 0.01 0.01 0.01 0.01 0.02 0.04 0.03 0.04 0.05 0.08 0.10 0.12 0.14 0.17
0.27 0.16 0.12 0.10 0.09 0.05 0.02 0.02 0.01 0.01 0.00 0.01 0.03 0.08 0.06 0.06 0.07 0.14 0.17 0.17 0.23 0.30
0.28 0.20 0.14 0.16 0.13 0.11 0.07 0.05 0.05 0.05 0.03 0.09 0.06 0.15 0.11 0.09 0.06 0.14 0.16 0.16 0.23 0.46
0.21 0.20 0.15 0.19 0.16 0.15 0.16 0.16 0.20 0.22 0.18 0.16 0.22 0.21 0.26 0.18 0.12 0.12 0.18 0.28 0.32 0.47